Location: Iesi
(43.5167°N, 13.2333°E)
Time: 16:35:15
(UTC+00:00)

Meteor 1-21 - Pass Details

Date: 08 August 2020
Orbit: 844 x 888 km, 81.2° (Epoch: 22 September)

Event Time Altitude Azimuth Distance (km) Brightness Sun altitude
Rises 23:17:41 0° 350° (N) 3,503 8.5 -30.7°
Reaches altitude 10° 23:20:10 10° 352° (N) 2,556 7.6 -30.7°
Enters shadow 23:25:24 70° 24° (NNE) 935 4.4 -30.6°
